Change the Weather History Date:

Wednesday, September 5, 2012

  Actual Average Record
Temperature  
Mean Temperature 76 °F -  
Max Temperature 91 °F 87 °F 104 °F (1998)
Min Temperature 62 °F 63 °F 60 °F (2008)
Cooling Degree Days 12    
Growing Degree Days 26 (Base 50)    
Moisture  
Dew Point 56 °F    
Average Humidity 52    
Maximum Humidity 88    
Minimum Humidity 18    
Precipitation  
Precipitation 0.00 in 0.01 in - ()
Sea Level Pressure  
Sea Level Pressure 29.93 in    
Wind  
Wind Speed 8 mph ()    
Max Wind Speed 16 mph    
Max Gust Speed -    
Visibility 6.0 miles    
Events      
Averages and records for this station are not official NWS values.
T = Trace of Precipitation, MM = Missing Value Source: Averaged Metar Reports

Daily Weather History Graph

Daily Weather History Graph

Search for Another Location

Airport or City:

Trip Planner

Search our weather history database for the weather conditions in past years. The results will help you decide how hot, cold, wet, or windy it might be!

Date:

Astronomy

Sep. 05, 2012 Rise Set
Actual Time 7:10 AM WEST 7:50 PM WEST
Civil Twilight 6:45 AM WEST 8:15 PM WEST
Nautical Twilight 6:16 AM WEST 8:44 PM WEST
Astronomical Twilight 5:47 AM WEST 9:13 PM WEST
Moon 10:35 PM WEST (9/5) 11:39 AM WEST (9/5)
Length of Visible Light 13h 29m
Length of Day
12h 40m
Waning Gibbous, 78% of the Moon is Illuminated
Sep 5
Waning Gibbous
Sep 8
Last Quarter
Sep 16
New
Sep 22
First Quarter
Sep 30
Full

Hourly Weather History & Observations

Time (WEST) Temp. Heat Index Dew Point Humidity Pressure Visibility Wind Dir Wind Speed Gust Speed Precip Events Conditions
12:00 AM 71.6 °F - 55.4 °F 57% 29.95 in - West 11.5 mph - N/A   Clear
12:30 AM 71.6 °F - 57.2 °F 60% 29.95 in - West 9.2 mph - N/A   Clear
1:00 AM 69 °F - 56 °F 54% 29.89 in 6 mi West 9.2 mph - -  
1:00 AM 69.8 °F - 57.2 °F 64% 29.95 in - West 9.2 mph - N/A   Clear
1:30 AM 69.8 °F - 57.2 °F 64% 29.92 in - West 10.4 mph - N/A   Clear
2:00 AM 68.0 °F - 57.2 °F 68% 29.92 in - WSW 10.4 mph - N/A   Clear
2:30 AM 68.0 °F - 55.4 °F 64% 29.92 in - West 9.2 mph - N/A   Clear
3:00 AM 66.2 °F - 55.4 °F 68% 29.92 in - West 9.2 mph - N/A   Clear
3:30 AM 64.4 °F - 53.6 °F 68% 29.92 in - West 8.1 mph - N/A   Clear
4:00 AM 65 °F - 55 °F 62% 29.88 in 6 mi West 5.8 mph - -  
4:00 AM 64.4 °F - 55.4 °F 73% 29.92 in - West 5.8 mph - N/A   Clear
4:30 AM 64.4 °F - 53.6 °F 68% 29.92 in - West 5.8 mph - N/A   Clear
5:00 AM 64.4 °F - 53.6 °F 68% 29.92 in - West 5.8 mph - N/A   Clear
5:30 AM 64.4 °F - 53.6 °F 68% 29.92 in - West 5.8 mph - N/A   Clear
6:00 AM 64.4 °F - 59.0 °F 83% 29.92 in - West 5.8 mph - N/A   Clear
6:30 AM 64.4 °F - 60.8 °F 88% 29.92 in - West 3.5 mph - N/A   Clear
7:00 AM 64 °F - 61 °F 86% 29.90 in 6 mi WNW 4.6 mph - -   Scattered Clouds
7:00 AM 62.6 °F - 59.0 °F 88% 29.92 in 6.2 mi WNW 4.6 mph - N/A   Partly Cloudy
7:30 AM 64.4 °F - 60.8 °F 88% 29.95 in 5.6 mi West 2.3 mph - N/A   Partly Cloudy
8:00 AM 68.0 °F - 62.6 °F 83% 29.95 in 4.3 mi North 1.2 mph - N/A   Partly Cloudy
8:30 AM 71.6 °F - 59.0 °F 64% 29.95 in - WNW 3.5 mph - N/A   Clear
9:00 AM 73.4 °F - 59.0 °F 61% 29.95 in - West 4.6 mph - N/A   Clear
9:30 AM 73.4 °F - 60.8 °F 65% 29.95 in - West 5.8 mph - N/A   Clear
10:00 AM 74 °F - 61 °F 55% 29.90 in 6 mi WNW 5.8 mph - -  
10:00 AM 75.2 °F - 60.8 °F 61% 29.95 in - WNW 4.6 mph - N/A   Clear
10:30 AM 77.0 °F - 59.0 °F 54% 29.98 in - WNW 6.9 mph - N/A   Clear
11:00 AM 77.0 °F - 59.0 °F 54% 29.98 in - WNW 8.1 mph - N/A   Clear
11:30 AM 80.6 °F 81.1 °F 59.0 °F 48% 29.98 in - West 9.2 mph - N/A   Clear
12:00 PM 82.4 °F 82.0 °F 57.2 °F 42% 29.98 in - West 8.1 mph - N/A   Clear
12:30 PM 84.2 °F 83.0 °F 55.4 °F 37% 29.95 in - West 8.1 mph - N/A   Clear
1:00 PM 85 °F - 55 °F 26% 29.86 in 6 mi WNW 8.1 mph - -  
1:00 PM 84.2 °F 83.5 °F 57.2 °F 40% 29.95 in - WNW 10.4 mph - N/A   Clear
1:30 PM 86.0 °F 84.2 °F 53.6 °F 33% 29.95 in - NW 8.1 mph - N/A   Clear
2:00 PM 87.8 °F 85.7 °F 53.6 °F 31% 29.95 in - Variable 9.2 mph - N/A   Clear
2:30 PM 87.8 °F 85.7 °F 53.6 °F 31% 29.92 in - Variable 6.9 mph - N/A   Clear
3:00 PM 89.6 °F 87.3 °F 53.6 °F 29% 29.92 in - WNW 4.6 mph - N/A   Clear
3:30 PM 89.6 °F 87.3 °F 53.6 °F 29% 29.92 in - West 8.1 mph - N/A   Clear
4:00 PM 90 °F - 52 °F 18% 29.80 in 6 mi WNW 6.9 mph - -   Scattered Clouds
4:00 PM 89.6 °F - 51.8 °F 27% 29.92 in 6.2 mi WNW 5.8 mph - N/A   Partly Cloudy
4:30 PM 89.6 °F - 50.0 °F 26% 29.89 in 6.2 mi West 3.5 mph - N/A   Partly Cloudy
5:00 PM 89.6 °F - 50.0 °F 26% 29.89 in 6.2 mi West 10.4 mph - N/A   Partly Cloudy
5:30 PM 89.6 °F - 48.2 °F 24% 29.92 in 6.2 mi West 8.1 mph - N/A   Partly Cloudy
6:00 PM 89.6 °F - 48.2 °F 24% 29.92 in 6.2 mi West 9.2 mph - N/A   Partly Cloudy
6:30 PM 89.6 °F - 51.8 °F 27% 29.92 in 6.2 mi WNW 9.2 mph - N/A   Partly Cloudy
7:00 PM 87 °F - 50 °F 18% 29.81 in 6 mi WNW 12.7 mph - -   Scattered Clouds
7:00 PM 87.8 °F - 50.0 °F 27% 29.92 in 6.2 mi WNW 12.7 mph - N/A   Partly Cloudy
7:30 PM 86.0 °F - 51.8 °F 31% 29.92 in 6.2 mi West 15.0 mph - N/A   Partly Cloudy
8:00 PM 82.4 °F 81.7 °F 55.4 °F 39% 29.92 in 6.2 mi WNW 15.0 mph - N/A   Partly Cloudy
8:30 PM 80.6 °F 80.8 °F 57.2 °F 45% 29.95 in 6.2 mi WNW 16.1 mph - N/A   Partly Cloudy
9:00 PM 78.8 °F - 57.2 °F 47% 29.95 in 5.6 mi WNW 13.8 mph - N/A   Partly Cloudy
9:30 PM 77.0 °F - 59.0 °F 54% 29.98 in 6.2 mi WNW 11.5 mph - N/A   Partly Cloudy
10:00 PM 75 °F - 59 °F 49% 29.92 in 6 mi West 11.5 mph - -   Scattered Clouds
10:00 PM 75.2 °F - 59.0 °F 57% 29.98 in 6.2 mi West 11.5 mph - N/A   Partly Cloudy
10:30 PM 73.4 °F - 59.0 °F 61% 29.98 in 6.2 mi West 9.2 mph - N/A   Partly Cloudy
11:00 PM 71.6 °F - 60.8 °F 69% 29.98 in - West 9.2 mph - N/A   Clear
11:30 PM 71.6 °F - 60.8 °F 69% 30.01 in - West 10.4 mph - N/A   Clear